Flag for Congo Weather past 2 weeks in Brazzaville, Congo

Now
81 °F

Passing clouds.


Feels Like: 82 °F
Forecast: 71 / 87 °F
Wind: 10 mph from Southwest

Location: Brazzaville / Maya-Maya

Current Time: Aug 21, 2014 at 1:08:38 PM

Latest Report: Aug 21, 2014 at 12:00 PM


Visibility: N/A

Pressure: 30.01 "Hg

Humidity: 58%

Dew point: 64 °F

Location of BrazzavilleLocation

Historic Weather in Brazzaville — Graph

°F

Brazzaville temperature yesterday

Maximum temperature yesterday: 79 °F (at 3:00 PM)
Minimum temperature yesterday: 70 °F (at 6:00 AM)
Average temperature yesterday: 73 °F

Past Weeks' High & Low Weather Summary

 TemperatureHumidityPressure
High90 °F (Aug 9, 4:00 PM)94% (Aug 16, 9:00 AM)30.07 "Hg (Aug 16, 9:00 AM)
Low66 °F (Aug 21, 5:00 AM)46% (Aug 9, 4:00 PM)29.86 "Hg (Aug 9, 3:00 PM)
Average76 °F71%29.98 "Hg
* Reported Aug 6 11:00 AM — Aug 21 11:00 AM, Brazzaville, Weather by CustomWeather, © 2014

Note: Actual official high and low records may vary slightly from our data, if they occured in-between our weather recording intervals... More about our weather records

Advertising

Brazzaville weather history for previous 24 hours

 ConditionsComfort  
Time TempWeatherWind HumidityBarometerVisibility
11:00 AM
Aug 21
79 °FScattered clouds.9 mph61%30.04 "Hg5 mi
10:00 AM75 °FPartly sunny.9 mph69%30.07 "Hg5 mi
9:00 AM73 °FPassing clouds.12 mph74%30.07 "Hg5 mi
8:00 AM68 °FPassing clouds.5 mph88%30.04 "Hg4 mi
7:00 AM66 °FFog.No wind94%30.01 "Hg2 mi
6:52 AM66 °FFog.No wind94%30.01 "Hg2 mi
6:00 AM66 °FPassing clouds.5 mph94%29.98 "Hg5 mi
5:00 AM66 °FClear.5 mph94%29.98 "Hg5 mi
4:00 AM68 °FClear.No wind88%29.98 "Hg5 mi
3:00 AM68 °FClear.1 mph88%29.95 "Hg5 mi
2:00 AM68 °FClear.2 mph88%29.98 "Hg5 mi
1:00 AM68 °FClear.No wind88%29.98 "Hg5 mi
12:00 AM70 °FClear.3 mph83%30.01 "Hg5 mi
11:00 PM
Aug 20
72 °FClear.2 mph78%30.01 "Hg5 mi
10:00 PM72 °FClear.5 mph78%30.01 "Hg5 mi
9:00 PM73 °FClear.5 mph74%29.98 "Hg5 mi
8:00 PM75 °FClear.5 mph69%29.98 "Hg5 mi
7:00 PM75 °FPassing clouds.3 mph69%29.95 "Hg5 mi
6:00 PM75 °FScattered clouds.3 mph69%29.92 "Hg5 mi
5:00 PM77 °FPartly sunny.6 mph65%29.92 "HgN/A
4:00 PM77 °FPartly sunny.7 mph65%29.92 "HgN/A
3:00 PM79 °FPassing clouds.8 mph61%29.95 "HgN/A
2:00 PM75 °FBroken clouds.7 mph65%29.95 "HgN/A
1:00 PM75 °FBroken clouds.9 mph69%29.98 "Hg5 mi
Weather by CustomWeather, © 2014

See weather overviewHow to use our weather pages